When you browse on this site, cookies collect data to enhance your experience and personalize the content and advertising you see.
Visit our Privacy Policy to learn more. By continuing to use the site, you agree to this use of cookies and data.
  • In Hungary
  • List of Countries
  • For 7 days
  • Water Temperature
  • Weather Map
  • News
  • Weather Widgets
  • user-avatar
    Login

    Hourly Weather Borama

    Today, 14 November, Thursday

    Time Temperature Precipitation Wind Pressure Humidity
    00:00 +17°C° 0 mm 3 mps 620 mmHg 62%
    01:00 +17°C° 0 mm 3 mps 620 mmHg 62%
    02:00 +16°C° 0 mm 3 mps 619 mmHg 62%
    03:00 +16°C° 0 mm 2 mps 619 mmHg 62%
    04:00 +15°C° 0 mm 2 mps 619 mmHg 62%
    05:00 +15°C° 0 mm 2 mps 619 mmHg 62%
    06:00 +15°C° 0 mm 2 mps 619 mmHg 62%
    07:00 +17°C° 0 mm 3 mps 620 mmHg 54%
    08:00 +19°C° 0 mm 4 mps 621 mmHg 46%
    09:00 +21°C° 0 mm 5 mps 622 mmHg 37%
    10:00 +22°C° 0 mm 5 mps 622 mmHg 35%
    11:00 +23°C° 0 mm 4 mps 622 mmHg 34%
    12:00 +25°C° 0 mm 4 mps 622 mmHg 32%
    13:00 +26°C° 0 mm 4 mps 622 mmHg 30%
    14:00 +26°C° 0 mm 4 mps 621 mmHg 29%
    15:00 +26°C° 0 mm 4 mps 621 mmHg 28%
    16:00 +25°C° 0 mm 5 mps 621 mmHg 36%
    17:00 +22°C° 0 mm 6 mps 620 mmHg 45%
    18:00 +21°C° 0 mm 8 mps 620 mmHg 53%
    19:00 +20°C° 0 mm 6 mps 620 mmHg 61%
    20:00 +19°C° 0 mm 5 mps 620 mmHg 68%
    21:00 +18°C° 0 mm 4 mps 620 mmHg 76%
    22:00 +17°C° 0 mm 4 mps 620 mmHg 74%
    23:00 +17°C° 0 mm 3 mps 620 mmHg 73%

    Tomorrow, 15 November, Friday

    Time Temperature Precipitation Wind Pressure Humidity
    00:00 +16°C° 0 mm 2 mps 620 mmHg 72%
    01:00 +16°C° 0 mm 2 mps 619 mmHg 68%
    02:00 +16°C° 0 mm 2 mps 619 mmHg 64%
    03:00 +16°C° 0 mm 2 mps 619 mmHg 59%
    04:00 +15°C° 0 mm 2 mps 619 mmHg 59%
    05:00 +15°C° 0 mm 2 mps 619 mmHg 59%
    06:00 +14°C° 0 mm 1 mps 619 mmHg 58%
    07:00 +16°C° 0 mm 2 mps 620 mmHg 52%
    08:00 +19°C° 0 mm 3 mps 621 mmHg 46%
    09:00 +21°C° 0 mm 3 mps 622 mmHg 41%
    10:00 +22°C° 0 mm 3 mps 622 mmHg 37%
    11:00 +24°C° 0 mm 3 mps 622 mmHg 33%
    12:00 +26°C° 0 mm 3 mps 622 mmHg 29%
    13:00 +26°C° 0 mm 4 mps 621 mmHg 30%
    14:00 +26°C° 0 mm 5 mps 621 mmHg 31%
    15:00 +27°C° 0 mm 5 mps 620 mmHg 32%
    16:00 +24°C° 0 mm 6 mps 620 mmHg 39%
    17:00 +22°C° 0 mm 6 mps 620 mmHg 47%
    18:00 +21°C° 0 mm 6 mps 619 mmHg 54%
    19:00 +19°C° 0 mm 6 mps 619 mmHg 63%
    20:00 +17°C° 0 mm 5 mps 620 mmHg 71%
    21:00 +17°C° 0 mm 4 mps 620 mmHg 80%
    22:00 +17°C° 0 mm 3 mps 619 mmHg 81%
    23:00 +17°C° 0 mm 3 mps 619 mmHg 83%

    Day after tomorrow, 16 November, Saturday

    Time Temperature Precipitation Wind Pressure Humidity
    00:00 +16°C° 0 mm 3 mps 619 mmHg 84%
    01:00 +16°C° 0 mm 3 mps 618 mmHg 80%
    02:00 +16°C° 0 mm 2 mps 618 mmHg 76%
    03:00 +15°C° 0 mm 2 mps 617 mmHg 73%
    04:00 +15°C° 0 mm 2 mps 618 mmHg 71%
    05:00 +15°C° 0 mm 2 mps 618 mmHg 68%
    06:00 +14°C° 0 mm 2 mps 618 mmHg 66%
    07:00 +16°C° 0 mm 3 mps 619 mmHg 58%
    08:00 +18°C° 0 mm 4 mps 620 mmHg 49%
    09:00 +20°C° 0 mm 5 mps 621 mmHg 41%
    10:00 +22°C° 0 mm 5 mps 621 mmHg 38%
    11:00 +23°C° 0 mm 5 mps 621 mmHg 35%
    12:00 +25°C° 0 mm 5 mps 621 mmHg 31%
    13:00 +25°C° 0 mm 5 mps 620 mmHg 31%
    14:00 +26°C° 0 mm 5 mps 620 mmHg 30%
    15:00 +26°C° 0 mm 5 mps 620 mmHg 30%
    16:00 +25°C° 0 mm 5 mps 619 mmHg 35%
    17:00 +22°C° 0 mm 6 mps 619 mmHg 41%
    18:00 +21°C° 0 mm 7 mps 619 mmHg 46%
    19:00 +19°C° 0 mm 6 mps 619 mmHg 59%
    20:00 +17°C° 0 mm 5 mps 619 mmHg 72%
    21:00 +17°C° 0 mm 4 mps 619 mmHg 86%
    22:00 +15°C° 0 mm 4 mps 619 mmHg 88%
    23:00 +16°C° 0 mm 3 mps 618 mmHg 90%

    17 November, Sunday

    Time Temperature Precipitation Wind Pressure Humidity
    00:00 +14°C° 0 mm 3 mps 618 mmHg 92%
    01:00 +15°C° 0 mm 2 mps 618 mmHg 90%
    02:00 +15°C° 0 mm 2 mps 617 mmHg 89%
    03:00 +15°C° 0 mm 1 mps 617 mmHg 87%
    04:00 +14°C° 0 mm 1 mps 617 mmHg 86%
    05:00 +14°C° 0 mm 2 mps 617 mmHg 84%
    06:00 +14°C° 0 mm 2 mps 618 mmHg 83%
    07:00 +16°C° 0 mm 2 mps 619 mmHg 71%
    08:00 +18°C° 0 mm 3 mps 620 mmHg 60%
    09:00 +20°C° 0 mm 4 mps 621 mmHg 48%
    10:00 +21°C° 0 mm 3 mps 621 mmHg 43%
    11:00 +22°C° 0 mm 3 mps 621 mmHg 39%
    12:00 +25°C° 0 mm 3 mps 621 mmHg 34%
    13:00 +26°C° 0 mm 3 mps 621 mmHg 32%
    14:00 +26°C° 0 mm 3 mps 621 mmHg 30%
    15:00 +27°C° 0 mm 4 mps 620 mmHg 27%
    16:00 +26°C° 0 mm 4 mps 620 mmHg 33%
    17:00 +25°C° 0 mm 5 mps 620 mmHg 38%
    18:00 +23°C° 0 mm 5 mps 620 mmHg 43%
    19:00 +21°C° 0 mm 5 mps 620 mmHg 56%
    20:00 +20°C° 0 mm 4 mps 620 mmHg 68%
    21:00 +19°C° 0 mm 4 mps 620 mmHg 80%
    22:00 +18°C° 0 mm 3 mps 620 mmHg 83%
    23:00 +18°C° 0 mm 3 mps 619 mmHg 86%

    18 November, Monday

    Time Temperature Precipitation Wind Pressure Humidity
    00:00 +17°C° 0 mm 2 mps 619 mmHg 89%
    01:00 +17°C° 0 mm 2 mps 619 mmHg 90%
    02:00 +16°C° 0 mm 2 mps 618 mmHg 91%
    03:00 +16°C° 0 mm 2 mps 618 mmHg 92%
    04:00 +16°C° 0 mm 2 mps 618 mmHg 91%
    05:00 +15°C° 0 mm 2 mps 618 mmHg 90%
    06:00 +15°C° 0 mm 2 mps 618 mmHg 89%
    07:00 +17°C° 0 mm 3 mps 620 mmHg 74%
    08:00 +19°C° 0 mm 4 mps 621 mmHg 58%
    09:00 +21°C° 0 mm 4 mps 622 mmHg 43%
    10:00 +23°C° 0 mm 4 mps 622 mmHg 39%
    11:00 +25°C° 0 mm 3 mps 622 mmHg 36%
    12:00 +26°C° 0 mm 3 mps 622 mmHg 32%
    13:00 +27°C° 0 mm 3 mps 622 mmHg 30%
    14:00 +27°C° 0 mm 4 mps 621 mmHg 29%
    15:00 +28°C° 0 mm 5 mps 621 mmHg 27%
    16:00 +27°C° 0 mm 5 mps 621 mmHg 34%
    17:00 +25°C° 0 mm 5 mps 621 mmHg 42%
    18:00 +23°C° 0 mm 6 mps 620 mmHg 49%
    19:00 +21°C° 0 mm 5 mps 620 mmHg 61%
    20:00 +20°C° 0 mm 5 mps 620 mmHg 73%
    21:00 +19°C° 0 mm 4 mps 620 mmHg 84%
    22:00 +18°C° 0 mm 4 mps 620 mmHg 86%
    23:00 +18°C° 0 mm 3 mps 620 mmHg 88%

    19 November, Tuesday

    Time Temperature Precipitation Wind Pressure Humidity
    00:00 +17°C° 0 mm 3 mps 619 mmHg 89%
    01:00 +17°C° 0 mm 2 mps 619 mmHg 91%
    02:00 +17°C° 0 mm 2 mps 619 mmHg 92%
    03:00 +16°C° 0 mm 2 mps 618 mmHg 93%
    04:00 +16°C° 0 mm 2 mps 619 mmHg 94%
    05:00 +16°C° 0 mm 2 mps 619 mmHg 95%
    06:00 +16°C° 0 mm 2 mps 619 mmHg 95%
    07:00 +18°C° 0 mm 3 mps 620 mmHg 85%
    08:00 +20°C° 0 mm 4 mps 621 mmHg 74%
    09:00 +22°C° 0 mm 4 mps 622 mmHg 63%
    10:00 +23°C° 0 mm 4 mps 622 mmHg 54%
    11:00 +26°C° 0 mm 4 mps 622 mmHg 44%
    12:00 +27°C° 0 mm 4 mps 622 mmHg 35%
    13:00 +28°C° 0 mm 4 mps 621 mmHg 35%
    14:00 +28°C° 0 mm 4 mps 621 mmHg 35%
    15:00 +28°C° 0 mm 4 mps 621 mmHg 34%
    16:00 +27°C° 0 mm 4 mps 620 mmHg 41%
    17:00 +26°C° 0 mm 5 mps 620 mmHg 48%
    18:00 +23°C° 0 mm 5 mps 620 mmHg 55%
    19:00 +22°C° 0.2 mm 5 mps 620 mmHg 62%
    20:00 +21°C° 0.2 mm 4 mps 620 mmHg 69%
    21:00 +20°C° 0.2 mm 4 mps 620 mmHg 76%
    22:00 +20°C° 0.3 mm 3 mps 619 mmHg 79%
    23:00 +19°C° 0.3 mm 3 mps 619 mmHg 81%
    Show more